Date_Time,Julian_Date,Latitude,Longitude,Instrument_Depth,U,V,Speed,Direction
(yyyy-mm-dd hh:mn:ss UTC),(JD),(+ deg. North),(+ deg. East),(m),(cm/s),(cm/s),(cm/s),(deg True)
1983-09-23 21:00:00 UTC,2445601.375000,29.6650,-93.4789,0076,-0.96,10.96,11.0000,355.0000
1983-09-23 21:30:00 UTC,2445601.395833,29.6650,-93.4789,0076,0.00,8.00,8.0000,0.0000
1983-09-23 22:00:00 UTC,2445601.416667,29.6650,-93.4789,0076,0.42,3.98,4.0000,6.0000
1983-09-23 22:30:00 UTC,2445601.437500,29.6650,-93.4789,0076,0.00,0.00,0.0000,51.0000
1983-09-23 23:00:00 UTC,2445601.458333,29.6650,-93.4789,0076,-0.42,-1.96,2.0000,192.0000
1983-09-23 23:30:00 UTC,2445601.479167,29.6650,-93.4789,0076,-0.81,-1.83,2.0000,204.0000
1983-09-24 00:00:00 UTC,2445601.500000,29.6650,-93.4789,0076,-0.42,-0.91,1.0000,205.0000
1983-09-24 00:30:00 UTC,2445601.520833,29.6650,-93.4789,0076,0.00,-0.00,0.0000,172.0000
1983-09-24 01:00:00 UTC,2445601.541667,29.6650,-93.4789,0076,-0.97,-0.26,1.0000,255.0000
1983-09-24 01:30:00 UTC,2445601.562500,29.6650,-93.4789,0076,-3.99,-0.21,4.0000,267.0000
1983-09-24 02:00:00 UTC,2445601.583333,29.6650,-93.4789,0076,-6.91,1.10,7.0000,279.0000
1983-09-24 02:30:00 UTC,2445601.604167,29.6650,-93.4789,0076,-7.47,2.87,8.0000,291.0000
1983-09-24 03:00:00 UTC,2445601.625000,29.6650,-93.4789,0076,-8.22,3.66,9.0000,294.0000
1983-09-24 03:30:00 UTC,2445601.645833,29.6650,-93.4789,0076,-8.40,3.23,9.0000,291.0000
1983-09-24 04:00:00 UTC,2445601.666667,29.6650,-93.4789,0076,-9.40,3.42,10.0000,290.0000
1983-09-24 04:30:00 UTC,2445601.687500,29.6650,-93.4789,0076,-8.51,2.93,9.0000,289.0000
1983-09-24 05:00:00 UTC,2445601.708333,29.6650,-93.4789,0076,-8.73,2.18,9.0000,284.0000
1983-09-24 05:30:00 UTC,2445601.729167,29.6650,-93.4789,0076,-8.73,2.18,9.0000,284.0000
1983-09-24 06:00:00 UTC,2445601.750000,29.6650,-93.4789,0076,-9.14,4.07,10.0000,294.0000
1983-09-24 06:30:00 UTC,2445601.770833,29.6650,-93.4789,0076,-8.48,5.30,10.0000,302.0000
1983-09-24 07:00:00 UTC,2445601.791667,29.6650,-93.4789,0076,-8.66,5.00,10.0000,300.0000
1983-09-24 07:30:00 UTC,2445601.812500,29.6650,-93.4789,0076,-8.66,5.00,10.0000,300.0000
1983-09-24 08:00:00 UTC,2445601.833333,29.6650,-93.4789,0076,-8.39,5.45,10.0000,303.0000
1983-09-24 08:30:00 UTC,2445601.854167,29.6650,-93.4789,0076,-9.23,5.99,11.0000,303.0000
1983-09-24 09:00:00 UTC,2445601.875000,29.6650,-93.4789,0076,-8.39,5.45,10.0000,303.0000
1983-09-24 09:30:00 UTC,2445601.895833,29.6650,-93.4789,0076,-8.19,5.74,10.0000,305.0000
1983-09-24 10:00:00 UTC,2445601.916667,29.6650,-93.4789,0076,-8.09,5.88,10.0000,306.0000
1983-09-24 10:30:00 UTC,2445601.937500,29.6650,-93.4789,0076,-8.79,6.62,11.0000,307.0000
1983-09-24 11:00:00 UTC,2445601.958333,29.6650,-93.4789,0076,-8.79,6.62,11.0000,307.0000
1983-09-24 11:30:00 UTC,2445601.979167,29.6650,-93.4789,0076,-7.43,6.69,10.0000,312.0000
1983-09-24 12:00:00 UTC,2445602.000000,29.6650,-93.4789,0076,-6.25,6.47,9.0000,316.0000
1983-09-24 12:30:00 UTC,2445602.020833,29.6650,-93.4789,0076,-7.09,5.54,9.0000,308.0000
1983-09-24 13:00:00 UTC,2445602.041667,29.6650,-93.4789,0076,-9.62,5.33,11.0000,299.0000
1983-09-24 13:30:00 UTC,2445602.062500,29.6650,-93.4789,0076,-9.33,5.83,11.0000,302.0000
1983-09-24 14:00:00 UTC,2445602.083333,29.6650,-93.4789,0076,-7.77,6.29,10.0000,309.0000
1983-09-24 14:30:00 UTC,2445602.104167,29.6650,-93.4789,0076,-8.66,5.00,10.0000,300.0000
1983-09-24 15:00:00 UTC,2445602.125000,29.6650,-93.4789,0076,-10.57,3.03,11.0000,286.0000
1983-09-24 15:30:00 UTC,2445602.145833,29.6650,-93.4789,0076,-9.85,1.74,10.0000,280.0000
1983-09-24 16:00:00 UTC,2445602.166667,29.6650,-93.4789,0076,-7.96,0.84,8.0000,276.0000
1983-09-24 16:30:00 UTC,2445602.187500,29.6650,-93.4789,0076,-7.98,0.56,8.0000,274.0000
1983-09-24 17:00:00 UTC,2445602.208333,29.6650,-93.4789,0076,-7.96,0.84,8.0000,276.0000
1983-09-24 17:30:00 UTC,2445602.229167,29.6650,-93.4789,0076,-7.85,1.53,8.0000,281.0000
1983-09-24 18:00:00 UTC,2445602.250000,29.6650,-93.4789,0076,-7.56,2.60,8.0000,289.0000
1983-09-24 18:30:00 UTC,2445602.270833,29.6650,-93.4789,0076,-4.46,2.27,5.0000,297.0000
1983-09-24 19:00:00 UTC,2445602.291667,29.6650,-93.4789,0076,-2.54,1.59,3.0000,302.0000
1983-09-24 19:30:00 UTC,2445602.312500,29.6650,-93.4789,0076,-0.72,0.69,1.0000,314.0000
1983-09-24 20:00:00 UTC,2445602.333333,29.6650,-93.4789,0076,0.80,0.60,1.0000,53.0000
1983-09-24 20:30:00 UTC,2445602.354167,29.6650,-93.4789,0076,1.89,0.65,2.0000,71.0000
1983-09-24 21:00:00 UTC,2445602.375000,29.6650,-93.4789,0076,3.00,-0.10,3.0000,92.0000
1983-09-24 21:30:00 UTC,2445602.395833,29.6650,-93.4789,0076,3.39,-2.12,4.0000,122.0000
1983-09-24 22:00:00 UTC,2445602.416667,29.6650,-93.4789,0076,3.60,-3.47,5.0000,134.0000
1983-09-24 22:30:00 UTC,2445602.437500,29.6650,-93.4789,0076,3.66,-3.41,5.0000,133.0000
1983-09-24 23:00:00 UTC,2445602.458333,29.6650,-93.4789,0076,5.44,-4.41,7.0000,129.0000
1983-09-24 23:30:00 UTC,2445602.479167,29.6650,-93.4789,0076,6.47,-4.70,8.0000,126.0000
1983-09-25 00:00:00 UTC,2445602.500000,29.6650,-93.4789,0076,7.37,-5.16,9.0000,125.0000
1983-09-25 00:30:00 UTC,2445602.520833,29.6650,-93.4789,0076,8.19,-5.74,10.0000,125.0000
1983-09-25 01:00:00 UTC,2445602.541667,29.6650,-93.4789,0076,8.78,-6.62,11.0000,127.0000
1983-09-25 01:30:00 UTC,2445602.562500,29.6650,-93.4789,0076,8.90,-6.47,11.0000,126.0000
1983-09-25 02:00:00 UTC,2445602.583333,29.6650,-93.4789,0076,8.57,-5.15,10.0000,121.0000
1983-09-25 02:30:00 UTC,2445602.604167,29.6650,-93.4789,0076,8.09,-3.95,9.0000,116.0000
1983-09-25 03:00:00 UTC,2445602.625000,29.6650,-93.4789,0076,8.22,-3.66,9.0000,114.0000
1983-09-25 03:30:00 UTC,2445602.645833,29.6650,-93.4789,0076,7.73,-2.07,8.0000,105.0000
1983-09-25 04:00:00 UTC,2445602.666667,29.6650,-93.4789,0076,8.00,0.14,8.0000,89.0000
1983-09-25 04:30:00 UTC,2445602.687500,29.6650,-93.4789,0076,6.79,1.69,7.0000,76.0000
1983-09-25 05:00:00 UTC,2445602.708333,29.6650,-93.4789,0076,4.81,1.38,5.0000,74.0000
1983-09-25 05:30:00 UTC,2445602.729167,29.6650,-93.4789,0076,0.71,-0.71,1.0000,135.0000
1983-09-25 06:00:00 UTC,2445602.750000,29.6650,-93.4789,0076,-2.93,-2.73,4.0000,227.0000
1983-09-25 06:30:00 UTC,2445602.770833,29.6650,-93.4789,0076,-6.39,-2.85,7.0000,246.0000
1983-09-25 07:00:00 UTC,2445602.791667,29.6650,-93.4789,0076,-8.83,-1.72,9.0000,259.0000
1983-09-25 07:30:00 UTC,2445602.812500,29.6650,-93.4789,0076,-10.00,0.17,10.0000,271.0000
1983-09-25 08:00:00 UTC,2445602.833333,29.6650,-93.4789,0076,-10.86,1.72,11.0000,279.0000
1983-09-25 08:30:00 UTC,2445602.854167,29.6650,-93.4789,0076,-10.67,2.66,11.0000,284.0000
1983-09-25 09:00:00 UTC,2445602.875000,29.6650,-93.4789,0076,-10.46,3.40,11.0000,288.0000
1983-09-25 09:30:00 UTC,2445602.895833,29.6650,-93.4789,0076,-11.54,3.31,12.0000,286.0000
1983-09-25 10:00:00 UTC,2445602.916667,29.6650,-93.4789,0076,-10.83,1.91,11.0000,280.0000
1983-09-25 10:30:00 UTC,2445602.937500,29.6650,-93.4789,0076,-10.98,0.58,11.0000,273.0000
1983-09-25 11:00:00 UTC,2445602.958333,29.6650,-93.4789,0076,-10.99,0.38,11.0000,272.0000
1983-09-25 11:30:00 UTC,2445602.979167,29.6650,-93.4789,0076,-10.96,0.96,11.0000,275.0000
1983-09-25 12:00:00 UTC,2445603.000000,29.6650,-93.4789,0076,-11.91,1.46,12.0000,277.0000
1983-09-25 12:30:00 UTC,2445603.020833,29.6650,-93.4789,0076,-10.86,1.72,11.0000,279.0000
1983-09-25 13:00:00 UTC,2445603.041667,29.6650,-93.4789,0076,-8.91,1.25,9.0000,278.0000
1983-09-25 13:30:00 UTC,2445603.062500,29.6650,-93.4789,0076,-6.99,0.37,7.0000,273.0000
1983-09-25 14:00:00 UTC,2445603.083333,29.6650,-93.4789,0076,-6.00,0.10,6.0000,271.0000
1983-09-25 14:30:00 UTC,2445603.104167,29.6650,-93.4789,0076,-5.98,0.52,6.0000,275.0000
1983-09-25 15:00:00 UTC,2445603.125000,29.6650,-93.4789,0076,-4.00,-0.14,4.0000,268.0000
1983-09-25 15:30:00 UTC,2445603.145833,29.6650,-93.4789,0076,-2.67,-1.36,3.0000,243.0000
1983-09-25 16:00:00 UTC,2445603.166667,29.6650,-93.4789,0076,-1.55,-1.26,2.0000,231.0000
1983-09-25 16:30:00 UTC,2445603.187500,29.6650,-93.4789,0076,-1.62,-1.18,2.0000,234.0000
1983-09-25 17:00:00 UTC,2445603.208333,29.6650,-93.4789,0076,-0.83,-0.56,1.0000,236.0000
1983-09-25 17:30:00 UTC,2445603.229167,29.6650,-93.4789,0076,-0.00,0.00,0.0000,275.0000
1983-09-25 18:00:00 UTC,2445603.250000,29.6650,-93.4789,0076,0.09,1.00,1.0000,5.0000
1983-09-25 18:30:00 UTC,2445603.270833,29.6650,-93.4789,0076,0.22,0.97,1.0000,13.0000
1983-09-25 19:00:00 UTC,2445603.291667,29.6650,-93.4789,0076,0.07,1.00,1.0000,4.0000
1983-09-25 19:30:00 UTC,2445603.312500,29.6650,-93.4789,0076,-0.00,0.00,0.0000,341.0000
1983-09-25 20:00:00 UTC,2445603.333333,29.6650,-93.4789,0076,-0.00,-0.00,0.0000,207.0000
1983-09-25 20:30:00 UTC,2445603.354167,29.6650,-93.4789,0076,-0.53,-0.85,1.0000,212.0000
1983-09-25 21:00:00 UTC,2445603.375000,29.6650,-93.4789,0076,-2.60,-1.50,3.0000,240.0000
1983-09-25 21:30:00 UTC,2445603.395833,29.6650,-93.4789,0076,-4.97,-0.52,5.0000,264.0000
1983-09-25 22:00:00 UTC,2445603.416667,29.6650,-93.4789,0076,-6.69,2.05,7.0000,287.0000
1983-09-25 22:30:00 UTC,2445603.437500,29.6650,-93.4789,0076,-6.47,4.70,8.0000,306.0000
1983-09-25 23:00:00 UTC,2445603.458333,29.6650,-93.4789,0076,-5.56,5.75,8.0000,316.0000
1983-09-25 23:30:00 UTC,2445603.479167,29.6650,-93.4789,0076,-4.53,3.94,6.0000,311.0000
1983-09-26 00:00:00 UTC,2445603.500000,29.6650,-93.4789,0076,-3.28,2.29,4.0000,305.0000
1983-09-26 00:30:00 UTC,2445603.520833,29.6650,-93.4789,0076,-2.26,1.97,3.0000,311.0000
1983-09-26 01:00:00 UTC,2445603.541667,29.6650,-93.4789,0076,-0.00,-0.00,0.0000,207.0000
1983-09-26 01:30:00 UTC,2445603.562500,29.6650,-93.4789,0076,0.63,-3.95,4.0000,171.0000
1983-09-26 02:00:00 UTC,2445603.583333,29.6650,-93.4789,0076,0.63,-5.97,6.0000,174.0000
1983-09-26 02:30:00 UTC,2445603.604167,29.6650,-93.4789,0076,1.34,-6.87,7.0000,169.0000
1983-09-26 03:00:00 UTC,2445603.625000,29.6650,-93.4789,0076,3.25,-7.31,8.0000,156.0000
1983-09-26 03:30:00 UTC,2445603.645833,29.6650,-93.4789,0076,4.01,-4.46,6.0000,138.0000
1983-09-26 04:00:00 UTC,2445603.666667,29.6650,-93.4789,0076,3.28,-2.29,4.0000,125.0000
1983-09-26 04:30:00 UTC,2445603.687500,29.6650,-93.4789,0076,1.77,-0.94,2.0000,118.0000
1983-09-26 05:00:00 UTC,2445603.708333,29.6650,-93.4789,0076,1.53,1.29,2.0000,50.0000
1983-09-26 05:30:00 UTC,2445603.729167,29.6650,-93.4789,0076,1.37,3.76,4.0000,20.0000
1983-09-26 06:00:00 UTC,2445603.750000,29.6650,-93.4789,0076,-0.21,6.00,6.0000,358.0000
1983-09-26 06:30:00 UTC,2445603.770833,29.6650,-93.4789,0076,-1.74,9.85,10.0000,350.0000
1983-09-26 07:00:00 UTC,2445603.791667,29.6650,-93.4789,0076,-1.95,13.86,14.0000,352.0000
1983-09-26 07:30:00 UTC,2445603.812500,29.6650,-93.4789,0076,-1.12,15.96,16.0000,356.0000
1983-09-26 08:00:00 UTC,2445603.833333,29.6650,-93.4789,0076,-1.39,15.94,16.0000,355.0000
1983-09-26 08:30:00 UTC,2445603.854167,29.6650,-93.4789,0076,-1.83,14.89,15.0000,353.0000
1983-09-26 09:00:00 UTC,2445603.875000,29.6650,-93.4789,0076,-1.46,11.91,12.0000,353.0000
1983-09-26 09:30:00 UTC,2445603.895833,29.6650,-93.4789,0076,-1.22,9.93,10.0000,353.0000
1983-09-26 10:00:00 UTC,2445603.916667,29.6650,-93.4789,0076,-0.85,6.95,7.0000,353.0000
1983-09-26 10:30:00 UTC,2445603.937500,29.6650,-93.4789,0076,-0.63,5.97,6.0000,354.0000
1983-09-26 11:00:00 UTC,2445603.958333,29.6650,-93.4789,0076,0.00,5.00,5.0000,0.0000
1983-09-26 11:30:00 UTC,2445603.979167,29.6650,-93.4789,0076,0.57,2.94,3.0000,11.0000
1983-09-26 12:00:00 UTC,2445604.000000,29.6650,-93.4789,0076,0.69,0.72,1.0000,44.0000
1983-09-26 12:30:00 UTC,2445604.020833,29.6650,-93.4789,0076,1.99,0.24,2.0000,83.0000
1983-09-26 13:00:00 UTC,2445604.041667,29.6650,-93.4789,0076,3.00,-0.05,3.0000,91.0000
1983-09-26 13:30:00 UTC,2445604.062500,29.6650,-93.4789,0076,5.00,0.17,5.0000,88.0000
1983-09-26 14:00:00 UTC,2445604.083333,29.6650,-93.4789,0076,6.00,-0.21,6.0000,92.0000
1983-09-26 14:30:00 UTC,2445604.104167,29.6650,-93.4789,0076,7.69,-2.21,8.0000,106.0000
1983-09-26 15:00:00 UTC,2445604.125000,29.6650,-93.4789,0076,8.09,-3.95,9.0000,116.0000
1983-09-26 15:30:00 UTC,2445604.145833,29.6650,-93.4789,0076,9.53,-5.50,11.0000,120.0000
1983-09-26 16:00:00 UTC,2445604.166667,29.6650,-93.4789,0076,9.96,-8.36,13.0000,130.0000
1983-09-26 16:30:00 UTC,2445604.187500,29.6650,-93.4789,0076,10.50,-12.08,16.0000,139.0000
1983-09-26 17:00:00 UTC,2445604.208333,29.6650,-93.4789,0076,10.83,-14.38,18.0000,143.0000
1983-09-26 17:30:00 UTC,2445604.229167,29.6650,-93.4789,0076,10.32,-14.74,18.0000,145.0000
1983-09-26 18:00:00 UTC,2445604.250000,29.6650,-93.4789,0076,7.98,-15.01,17.0000,152.0000
1983-09-26 18:30:00 UTC,2445604.270833,29.6650,-93.4789,0076,5.86,-13.81,15.0000,157.0000
1983-09-26 19:00:00 UTC,2445604.291667,29.6650,-93.4789,0076,4.99,-9.80,11.0000,153.0000
1983-09-26 19:30:00 UTC,2445604.312500,29.6650,-93.4789,0076,4.59,-6.55,8.0000,145.0000
1983-09-26 20:00:00 UTC,2445604.333333,29.6650,-93.4789,0076,2.94,-4.05,5.0000,144.0000
1983-09-26 20:30:00 UTC,2445604.354167,29.6650,-93.4789,0076,1.93,-2.30,3.0000,140.0000
1983-09-26 21:00:00 UTC,2445604.375000,29.6650,-93.4789,0076,0.78,1.84,2.0000,23.0000
1983-09-26 21:30:00 UTC,2445604.395833,29.6650,-93.4789,0076,-0.10,6.00,6.0000,359.0000
1983-09-26 22:00:00 UTC,2445604.416667,29.6650,-93.4789,0076,0.00,7.00,7.0000,0.0000
1983-09-26 22:30:00 UTC,2445604.437500,29.6650,-93.4789,0076,0.49,6.98,7.0000,4.0000
1983-09-26 23:00:00 UTC,2445604.458333,29.6650,-93.4789,0076,0.56,7.98,8.0000,4.0000
1983-09-26 23:30:00 UTC,2445604.479167,29.6650,-93.4789,0076,2.42,9.70,10.0000,14.0000
1983-09-27 00:00:00 UTC,2445604.500000,29.6650,-93.4789,0076,6.36,10.18,12.0000,32.0000
1983-09-27 00:30:00 UTC,2445604.520833,29.6650,-93.4789,0076,8.70,9.66,13.0000,42.0000
1983-09-27 01:00:00 UTC,2445604.541667,29.6650,-93.4789,0076,8.87,9.51,13.0000,43.0000
1983-09-27 01:30:00 UTC,2445604.562500,29.6650,-93.4789,0076,8.04,7.50,11.0000,47.0000
1983-09-27 02:00:00 UTC,2445604.583333,29.6650,-93.4789,0076,7.66,6.43,10.0000,50.0000
1983-09-27 02:30:00 UTC,2445604.604167,29.6650,-93.4789,0076,5.66,5.66,8.0000,45.0000
1983-09-27 03:00:00 UTC,2445604.625000,29.6650,-93.4789,0076,3.50,6.06,7.0000,30.0000
1983-09-27 03:30:00 UTC,2445604.645833,29.6650,-93.4789,0076,1.57,6.82,7.0000,13.0000
1983-09-27 04:00:00 UTC,2445604.666667,29.6650,-93.4789,0076,0.97,7.94,8.0000,7.0000
1983-09-27 04:30:00 UTC,2445604.687500,29.6650,-93.4789,0076,1.39,7.88,8.0000,10.0000
1983-09-27 05:00:00 UTC,2445604.708333,29.6650,-93.4789,0076,1.94,7.76,8.0000,14.0000
1983-09-27 05:30:00 UTC,2445604.729167,29.6650,-93.4789,0076,2.47,7.61,8.0000,18.0000
1983-09-27 06:00:00 UTC,2445604.750000,29.6650,-93.4789,0076,2.60,7.56,8.0000,19.0000
1983-09-27 06:30:00 UTC,2445604.770833,29.6650,-93.4789,0076,2.74,7.52,8.0000,20.0000
1983-09-27 07:00:00 UTC,2445604.791667,29.6650,-93.4789,0076,2.87,7.47,8.0000,21.0000
1983-09-27 07:30:00 UTC,2445604.812500,29.6650,-93.4789,0076,3.25,7.31,8.0000,24.0000
1983-09-27 08:00:00 UTC,2445604.833333,29.6650,-93.4789,0076,3.38,7.25,8.0000,25.0000
1983-09-27 08:30:00 UTC,2445604.854167,29.6650,-93.4789,0076,3.38,7.25,8.0000,25.0000
1983-09-27 09:00:00 UTC,2445604.875000,29.6650,-93.4789,0076,3.25,7.31,8.0000,24.0000
1983-09-27 09:30:00 UTC,2445604.895833,29.6650,-93.4789,0076,3.38,7.25,8.0000,25.0000
1983-09-27 10:00:00 UTC,2445604.916667,29.6650,-93.4789,0076,4.47,6.63,8.0000,34.0000
1983-09-27 10:30:00 UTC,2445604.937500,29.6650,-93.4789,0076,5.95,5.35,8.0000,48.0000
1983-09-27 11:00:00 UTC,2445604.958333,29.6650,-93.4789,0076,7.00,3.88,8.0000,61.0000
1983-09-27 11:30:00 UTC,2445604.979167,29.6650,-93.4789,0076,7.61,2.47,8.0000,72.0000
1983-09-27 12:00:00 UTC,2445605.000000,29.6650,-93.4789,0076,7.85,1.53,8.0000,79.0000
1983-09-27 12:30:00 UTC,2445605.020833,29.6650,-93.4789,0076,7.99,0.42,8.0000,87.0000
1983-09-27 13:00:00 UTC,2445605.041667,29.6650,-93.4789,0076,6.98,-0.49,7.0000,94.0000
1983-09-27 13:30:00 UTC,2445605.062500,29.6650,-93.4789,0076,6.93,-0.97,7.0000,98.0000
1983-09-27 14:00:00 UTC,2445605.083333,29.6650,-93.4789,0076,5.87,-1.25,6.0000,102.0000
1983-09-27 14:30:00 UTC,2445605.104167,29.6650,-93.4789,0076,5.77,-1.65,6.0000,106.0000
1983-09-27 15:00:00 UTC,2445605.125000,29.6650,-93.4789,0076,6.62,-2.28,7.0000,109.0000
1983-09-27 15:30:00 UTC,2445605.145833,29.6650,-93.4789,0076,8.34,-3.37,9.0000,112.0000
1983-09-27 16:00:00 UTC,2445605.166667,29.6650,-93.4789,0076,10.69,-5.45,12.0000,117.0000
1983-09-27 16:30:00 UTC,2445605.187500,29.6650,-93.4789,0076,11.02,-6.89,13.0000,122.0000
1983-09-27 17:00:00 UTC,2445605.208333,29.6650,-93.4789,0076,10.65,-7.46,13.0000,125.0000
1983-09-27 17:30:00 UTC,2445605.229167,29.6650,-93.4789,0076,9.46,-7.39,12.0000,128.0000
1983-09-27 18:00:00 UTC,2445605.250000,29.6650,-93.4789,0076,8.63,-8.34,12.0000,134.0000
1983-09-27 18:30:00 UTC,2445605.270833,29.6650,-93.4789,0076,7.87,-9.06,12.0000,139.0000
1983-09-27 19:00:00 UTC,2445605.291667,29.6650,-93.4789,0076,5.88,-8.09,10.0000,144.0000
1983-09-27 19:30:00 UTC,2445605.312500,29.6650,-93.4789,0076,4.50,-7.79,9.0000,150.0000
1983-09-27 20:00:00 UTC,2445605.333333,29.6650,-93.4789,0076,3.66,-8.22,9.0000,156.0000
1983-09-27 20:30:00 UTC,2445605.354167,29.6650,-93.4789,0076,3.71,-11.41,12.0000,162.0000
1983-09-27 21:00:00 UTC,2445605.375000,29.6650,-93.4789,0076,2.91,-13.69,14.0000,168.0000
1983-09-27 21:30:00 UTC,2445605.395833,29.6650,-93.4789,0076,0.98,-13.97,14.0000,176.0000
1983-09-27 22:00:00 UTC,2445605.416667,29.6650,-93.4789,0076,-0.73,-13.98,14.0000,183.0000
1983-09-27 22:30:00 UTC,2445605.437500,29.6650,-93.4789,0076,-2.09,-14.85,15.0000,188.0000
1983-09-27 23:00:00 UTC,2445605.458333,29.6650,-93.4789,0076,-4.13,-14.42,15.0000,196.0000
1983-09-27 23:30:00 UTC,2445605.479167,29.6650,-93.4789,0076,-6.51,-14.62,16.0000,204.0000
1983-09-28 00:00:00 UTC,2445605.500000,29.6650,-93.4789,0076,-9.18,-13.11,16.0000,215.0000
1983-09-28 00:30:00 UTC,2445605.520833,29.6650,-93.4789,0076,-11.66,-9.44,15.0000,231.0000
1983-09-28 01:00:00 UTC,2445605.541667,29.6650,-93.4789,0076,-12.79,-5.69,14.0000,246.0000
1983-09-28 01:30:00 UTC,2445605.562500,29.6650,-93.4789,0076,-12.50,-3.58,13.0000,254.0000
1983-09-28 02:00:00 UTC,2445605.583333,29.6650,-93.4789,0076,-13.74,-2.67,14.0000,259.0000
1983-09-28 02:30:00 UTC,2445605.604167,29.6650,-93.4789,0076,-13.92,-1.46,14.0000,264.0000
1983-09-28 03:00:00 UTC,2445605.625000,29.6650,-93.4789,0076,-14.96,1.05,15.0000,274.0000
1983-09-28 03:30:00 UTC,2445605.645833,29.6650,-93.4789,0076,-15.76,2.78,16.0000,280.0000
1983-09-28 04:00:00 UTC,2445605.666667,29.6650,-93.4789,0076,-17.82,2.51,18.0000,278.0000
1983-09-28 04:30:00 UTC,2445605.687500,29.6650,-93.4789,0076,-18.77,2.97,19.0000,279.0000
1983-09-28 05:00:00 UTC,2445605.708333,29.6650,-93.4789,0076,-18.35,4.92,19.0000,285.0000
1983-09-28 05:30:00 UTC,2445605.729167,29.6650,-93.4789,0076,-16.69,6.74,18.0000,292.0000
1983-09-28 06:00:00 UTC,2445605.750000,29.6650,-93.4789,0076,-16.78,8.92,19.0000,298.0000
1983-09-28 06:30:00 UTC,2445605.770833,29.6650,-93.4789,0076,-17.14,10.30,20.0000,301.0000
1983-09-28 07:00:00 UTC,2445605.791667,29.6650,-93.4789,0076,-15.75,10.62,19.0000,304.0000
1983-09-28 07:30:00 UTC,2445605.812500,29.6650,-93.4789,0076,-14.92,10.07,18.0000,304.0000
1983-09-28 08:00:00 UTC,2445605.833333,29.6650,-93.4789,0076,-13.75,9.99,17.0000,306.0000
1983-09-28 08:30:00 UTC,2445605.854167,29.6650,-93.4789,0076,-13.21,10.70,17.0000,309.0000
1983-09-28 09:00:00 UTC,2445605.875000,29.6650,-93.4789,0076,-12.61,9.85,16.0000,308.0000
1983-09-28 09:30:00 UTC,2445605.895833,29.6650,-93.4789,0076,-12.99,7.50,15.0000,300.0000
1983-09-28 10:00:00 UTC,2445605.916667,29.6650,-93.4789,0076,-14.94,5.73,16.0000,291.0000
1983-09-28 10:30:00 UTC,2445605.937500,29.6650,-93.4789,0076,-15.38,4.41,16.0000,286.0000
1983-09-28 11:00:00 UTC,2445605.958333,29.6650,-93.4789,0076,-13.58,3.39,14.0000,284.0000
1983-09-28 11:30:00 UTC,2445605.979167,29.6650,-93.4789,0076,-10.57,3.03,11.0000,286.0000
1983-09-28 12:00:00 UTC,2445606.000000,29.6650,-93.4789,0076,-8.34,3.37,9.0000,292.0000
1983-09-28 12:30:00 UTC,2445606.020833,29.6650,-93.4789,0076,-6.62,2.28,7.0000,289.0000
1983-09-28 13:00:00 UTC,2445606.041667,29.6650,-93.4789,0076,-5.91,1.04,6.0000,280.0000
1983-09-28 13:30:00 UTC,2445606.062500,29.6650,-93.4789,0076,-3.99,0.28,4.0000,274.0000
1983-09-28 14:00:00 UTC,2445606.083333,29.6650,-93.4789,0076,-2.98,0.37,3.0000,277.0000
1983-09-28 14:30:00 UTC,2445606.104167,29.6650,-93.4789,0076,-3.95,0.63,4.0000,279.0000
1983-09-28 15:00:00 UTC,2445606.125000,29.6650,-93.4789,0076,-4.95,0.70,5.0000,278.0000
1983-09-28 15:30:00 UTC,2445606.145833,29.6650,-93.4789,0076,-5.96,0.73,6.0000,277.0000
1983-09-28 16:00:00 UTC,2445606.166667,29.6650,-93.4789,0076,-4.95,0.70,5.0000,278.0000
1983-09-28 16:30:00 UTC,2445606.187500,29.6650,-93.4789,0076,-3.97,0.49,4.0000,277.0000
1983-09-28 17:00:00 UTC,2445606.208333,29.6650,-93.4789,0076,-3.97,0.49,4.0000,277.0000
1983-09-28 17:30:00 UTC,2445606.229167,29.6650,-93.4789,0076,-4.85,1.21,5.0000,284.0000
1983-09-28 18:00:00 UTC,2445606.250000,29.6650,-93.4789,0076,-4.73,1.63,5.0000,289.0000
1983-09-28 18:30:00 UTC,2445606.270833,29.6650,-93.4789,0076,-4.60,1.95,5.0000,293.0000
1983-09-28 19:00:00 UTC,2445606.291667,29.6650,-93.4789,0076,-4.53,2.11,5.0000,295.0000
1983-09-28 19:30:00 UTC,2445606.312500,29.6650,-93.4789,0076,-4.60,1.95,5.0000,293.0000
1983-09-28 20:00:00 UTC,2445606.333333,29.6650,-93.4789,0076,-3.76,1.37,4.0000,290.0000
1983-09-28 20:30:00 UTC,2445606.354167,29.6650,-93.4789,0076,-3.63,1.69,4.0000,295.0000
1983-09-28 21:00:00 UTC,2445606.375000,29.6650,-93.4789,0076,-3.35,2.18,4.0000,303.0000
1983-09-28 21:30:00 UTC,2445606.395833,29.6650,-93.4789,0076,-3.83,3.21,5.0000,310.0000
1983-09-28 22:00:00 UTC,2445606.416667,29.6650,-93.4789,0076,-3.66,3.41,5.0000,313.0000
1983-09-28 22:30:00 UTC,2445606.437500,29.6650,-93.4789,0076,-3.72,3.35,5.0000,312.0000
1983-09-28 23:00:00 UTC,2445606.458333,29.6650,-93.4789,0076,-2.70,1.32,3.0000,296.0000
1983-09-28 23:30:00 UTC,2445606.479167,29.6650,-93.4789,0076,-2.98,0.37,3.0000,277.0000
1983-09-29 00:00:00 UTC,2445606.500000,29.6650,-93.4789,0076,-3.95,0.63,4.0000,279.0000
1983-09-29 00:30:00 UTC,2445606.520833,29.6650,-93.4789,0076,-3.93,0.76,4.0000,281.0000
1983-09-29 01:00:00 UTC,2445606.541667,29.6650,-93.4789,0076,-2.99,0.26,3.0000,275.0000
1983-09-29 01:30:00 UTC,2445606.562500,29.6650,-93.4789,0076,-2.00,-0.00,2.0000,270.0000
1983-09-29 02:00:00 UTC,2445606.583333,29.6650,-93.4789,0076,-1.00,-0.02,1.0000,269.0000
1983-09-29 02:30:00 UTC,2445606.604167,29.6650,-93.4789,0076,-0.99,-0.10,1.0000,264.0000
1983-09-29 03:00:00 UTC,2445606.625000,29.6650,-93.4789,0076,-1.00,-0.03,1.0000,268.0000
1983-09-29 03:30:00 UTC,2445606.645833,29.6650,-93.4789,0076,-1.99,0.21,2.0000,276.0000
1983-09-29 04:00:00 UTC,2445606.666667,29.6650,-93.4789,0076,-1.94,0.48,2.0000,284.0000
1983-09-29 04:30:00 UTC,2445606.687500,29.6650,-93.4789,0076,-2.90,0.78,3.0000,285.0000
1983-09-29 05:00:00 UTC,2445606.708333,29.6650,-93.4789,0076,-1.92,0.55,2.0000,286.0000
1983-09-29 05:30:00 UTC,2445606.729167,29.6650,-93.4789,0076,-1.83,0.81,2.0000,294.0000
1983-09-29 06:00:00 UTC,2445606.750000,29.6650,-93.4789,0076,-0.53,0.85,1.0000,328.0000
1983-09-29 06:30:00 UTC,2445606.770833,29.6650,-93.4789,0076,0.31,0.95,1.0000,18.0000
1983-09-29 07:00:00 UTC,2445606.791667,29.6650,-93.4789,0076,-0.02,1.00,1.0000,359.0000
1983-09-29 07:30:00 UTC,2445606.812500,29.6650,-93.4789,0076,-0.75,1.85,2.0000,338.0000
1983-09-29 08:00:00 UTC,2445606.833333,29.6650,-93.4789,0076,-0.72,1.87,2.0000,339.0000
1983-09-29 08:30:00 UTC,2445606.854167,29.6650,-93.4789,0076,-0.55,1.92,2.0000,344.0000
1983-09-29 09:00:00 UTC,2445606.875000,29.6650,-93.4789,0076,-0.22,0.97,1.0000,347.0000
1983-09-29 09:30:00 UTC,2445606.895833,29.6650,-93.4789,0076,0.19,0.98,1.0000,11.0000
1983-09-29 10:00:00 UTC,2445606.916667,29.6650,-93.4789,0076,0.82,0.57,1.0000,55.0000
1983-09-29 10:30:00 UTC,2445606.937500,29.6650,-93.4789,0076,2.98,0.31,3.0000,84.0000
1983-09-29 11:00:00 UTC,2445606.958333,29.6650,-93.4789,0076,3.98,-0.42,4.0000,96.0000